Change the Weather History Date:

Friday, August 29, 2014

  Actual Average (KLSE) Record (KLSE)
Temperature  
Mean Temperature 71 °F 69 °F  
Max Temperature 84 °F 79 °F 95 °F (1966)
Min Temperature 58 °F 59 °F 40 °F (1965)
Degree Days  
Heating Degree Days 0 1  
Month to date heating degree days 9  
Since 1 July heating degree days 14  
Cooling Degree Days 6 5  
Month to date cooling degree days 204  
Year to date cooling degree days 691  
Growing Degree Days 21 (Base 50)    
Moisture  
Dew Point 65 °F    
Average Humidity 89    
Maximum Humidity 100    
Minimum Humidity 60    
Precipitation  
Precipitation 0.14 in 0.12 in 1.24 in (1876)
Month to date precipitation 4.02  
Year to date precipitation 23.69  
Snow  
Snow 0.00 in 0.00 in 0.00 in (2002)
Month to date snowfall 0.0  
Since 1 July snowfall 0.0  
Snow Depth -    
Sea Level Pressure  
Sea Level Pressure 29.85 in    
Wind  
Wind Speed 4 mph (SE)    
Max Wind Speed 14 mph    
Max Gust Speed 30 mph    
Visibility 8 miles    
Events Rain , Thunderstorm    
T = Trace of Precipitation, MM = Missing Value Source: NWS Daily Summary

Daily Weather History Graph

Daily Weather History Graph

Search for Another Location

Airport or City:

Trip Planner

Search our weather history database for the weather conditions in past years. The results will help you decide how hot, cold, wet, or windy it might be!

Date:

Astronomy

Aug. 29, 2014 Rise Set
Actual Time 6:22 AM CDT 7:44 PM CDT
Civil Twilight 5:52 AM CDT 8:14 PM CDT
Nautical Twilight 5:16 AM CDT 8:51 PM CDT
Astronomical Twilight 4:37 AM CDT 9:29 PM CDT
Moon 10:22 AM CDT (8/29) 9:31 PM CDT (8/29)
Length of Visible Light 14h 22m
Length of Day
13h 21m
Waxing Crescent, 15% of the Moon is Illuminated
Aug 29
Waxing Crescent
Sep 2
First Quarter
Sep 8
Full
Sep 15
Last Quarter
Sep 24
New

Hourly Weather History & Observations

Time (CDT) Temp. Heat Index Dew Point Humidity Pressure Visibility Wind Dir Wind Speed Gust Speed Precip Events Conditions
12:15 AM 61.0 °F - 61.0 °F 100% 29.98 in 10.0 mi East 4.6 mph - 0.01 in Rain Light Rain
12:35 AM 60.4 °F - 60.4 °F 100% 29.98 in 10.0 mi East 4.6 mph - 0.01 in   Overcast
12:55 AM 60.1 °F - 60.1 °F 100% 29.98 in 10.0 mi ENE 5.8 mph - 0.01 in   Overcast
1:15 AM 59.9 °F - 59.9 °F 100% 29.97 in 10.0 mi East 4.6 mph - N/A   Overcast
1:35 AM 59.4 °F - 59.4 °F 100% 29.96 in 10.0 mi ENE 5.8 mph - N/A   Overcast
1:55 AM 59.0 °F - 59.0 °F 100% 29.95 in 10.0 mi ENE 6.9 mph - N/A   Overcast
2:15 AM 59.0 °F - 59.0 °F 100% 29.94 in 10.0 mi East 3.5 mph - N/A   Overcast
2:35 AM 58.6 °F - 58.6 °F 100% 29.93 in 10.0 mi East 3.5 mph - N/A   Overcast
2:55 AM 58.8 °F - 58.8 °F 100% 29.93 in 10.0 mi ENE 3.5 mph - N/A   Overcast
3:15 AM 59.0 °F - 59.0 °F 100% 29.93 in 10.0 mi Calm Calm - N/A Thunderstorm Overcast
3:35 AM 59.2 °F - 59.2 °F 100% 29.93 in 10.0 mi Calm Calm - N/A Thunderstorm Thunderstorm
3:55 AM 59.2 °F - 59.2 °F 100% 29.93 in 10.0 mi East 3.5 mph - N/A Thunderstorm Overcast
4:15 AM 59.4 °F - 59.4 °F 100% 29.92 in 10.0 mi Calm Calm - N/A   Overcast
4:35 AM 59.5 °F - 59.5 °F 100% 29.92 in 10.0 mi Calm Calm - N/A   Overcast
4:55 AM 59.9 °F - 59.9 °F 100% 29.92 in 10.0 mi Calm Calm - N/A   Overcast
5:15 AM 59.9 °F - 59.9 °F 100% 29.92 in 10.0 mi Calm Calm - N/A   Overcast
5:35 AM 60.1 °F - 60.1 °F 100% 29.92 in 10.0 mi NE 4.6 mph - N/A   Overcast
5:55 AM 59.9 °F - 59.9 °F 100% 29.91 in 7.0 mi ENE 4.6 mph - N/A Rain Light Rain
6:15 AM 60.3 °F - 60.3 °F 100% 29.90 in 7.0 mi ENE 4.6 mph - N/A Rain Light Rain
6:35 AM 60.3 °F - 60.3 °F 100% 29.91 in 7.0 mi East 3.5 mph - N/A Rain Rain
6:55 AM 60.4 °F - 60.4 °F 100% 29.91 in 5.0 mi Calm Calm - N/A Rain Rain
7:15 AM 60.8 °F - 60.8 °F 100% 29.90 in 5.0 mi Calm Calm - N/A Rain Light Rain
7:35 AM 61.7 °F - 61.7 °F 100% 29.88 in 5.0 mi ESE 3.5 mph - 0.01 in Rain Light Rain
7:55 AM 62.1 °F - 62.1 °F 100% 29.88 in 5.0 mi SE 5.8 mph - 0.01 in   Overcast
8:15 AM 62.6 °F - 62.6 °F 100% 29.87 in 5.0 mi SE 4.6 mph - N/A   Overcast
8:35 AM 63.5 °F - 63.5 °F 100% 29.87 in 5.0 mi Calm Calm - N/A   Overcast
8:55 AM 63.9 °F - 63.9 °F 100% 29.87 in 5.0 mi ESE 4.6 mph - N/A   Overcast
9:15 AM 64.6 °F - 64.6 °F 100% 29.86 in 5.0 mi ESE 3.5 mph - N/A   Overcast
9:35 AM 65.7 °F - 65.7 °F 100% 29.86 in 5.0 mi Calm Calm - N/A   Overcast
9:55 AM 66.9 °F - 66.9 °F 100% 29.86 in 7.0 mi SE 3.5 mph - N/A   Overcast
10:15 AM 68.4 °F - 68.0 °F 99% 29.86 in 7.0 mi Calm Calm - N/A   Overcast
10:35 AM 69.3 °F - 68.5 °F 98% 29.87 in 10.0 mi Calm Calm - N/A   Overcast
10:55 AM 70.0 °F - 68.9 °F 96% 29.87 in 10.0 mi Calm Calm - N/A   Overcast
11:15 AM 71.6 °F - 69.4 °F 93% 29.87 in 10.0 mi Calm Calm - N/A   Overcast
11:35 AM 72.7 °F - 70.2 °F 92% 29.86 in 10.0 mi Calm Calm - N/A   Overcast
11:55 AM 74.8 °F - 70.7 °F 87% 29.86 in 10.0 mi Calm Calm - N/A   Overcast
12:15 PM 75.4 °F - 68.4 °F 79% 29.85 in 10.0 mi Calm Calm - N/A   Overcast
12:35 PM 78.8 °F - 68.5 °F 71% 29.84 in 10.0 mi South 5.8 mph - N/A   Overcast
12:55 PM 79.5 °F - 68.4 °F 69% 29.83 in 10.0 mi SSE 6.9 mph - N/A   Mostly Cloudy
1:15 PM 80.1 °F 82.8 °F 68.5 °F 68% 29.83 in 10.0 mi SSE 6.9 mph - N/A   Scattered Clouds
1:35 PM 81.5 °F 84.8 °F 69.1 °F 66% 29.83 in 10.0 mi South 4.6 mph - N/A   Scattered Clouds
1:55 PM 81.7 °F 85.1 °F 69.3 °F 66% 29.82 in 10.0 mi South 8.1 mph - N/A   Clear
2:15 PM 82.9 °F 86.7 °F 69.8 °F 64% 29.81 in 10.0 mi South 6.9 mph - N/A   Mostly Cloudy
2:35 PM 83.7 °F 87.5 °F 69.3 °F 62% 29.81 in 10.0 mi South 6.9 mph - N/A   Scattered Clouds
2:55 PM 83.5 °F 87.2 °F 69.3 °F 62% 29.80 in 10.0 mi SSE 6.9 mph - N/A   Scattered Clouds
3:15 PM 84.0 °F 87.8 °F 69.1 °F 61% 29.79 in 10.0 mi South 5.8 mph - N/A   Mostly Cloudy
3:35 PM 84.2 °F 87.9 °F 68.9 °F 60% 29.78 in 10.0 mi South 8.1 mph - N/A   Scattered Clouds
3:55 PM 83.3 °F 86.6 °F 68.5 °F 61% 29.76 in 10.0 mi South 9.2 mph - N/A   Scattered Clouds
4:15 PM 84.2 °F 87.9 °F 68.9 °F 60% 29.76 in 10.0 mi SSW 8.1 mph - N/A   Mostly Cloudy
4:55 PM 83.5 °F 87.2 °F 69.1 °F 62% 29.76 in 10.0 mi SSE 5.8 mph - N/A   Mostly Cloudy
5:15 PM 84.2 °F 88.1 °F 69.3 °F 61% 29.75 in 10.0 mi South 5.8 mph - N/A   Scattered Clouds
5:35 PM 81.1 °F 84.7 °F 70.0 °F 69% 29.74 in 10.0 mi SSE 4.6 mph - N/A   Clear
5:55 PM 80.6 °F 83.8 °F 69.6 °F 69% 29.75 in 10.0 mi South 5.8 mph - N/A   Clear
6:15 PM 80.6 °F 83.4 °F 68.4 °F 66% 29.76 in 10.0 mi South 5.8 mph - N/A   Scattered Clouds
6:35 PM 75.9 °F - 62.8 °F 64% 29.78 in 10.0 mi West 13.8 mph 29.9 mph N/A   Mostly Cloudy
6:55 PM 73.4 °F - 63.0 °F 70% 29.78 in 10.0 mi WNW 6.9 mph - N/A   Overcast
7:15 PM 72.9 °F - 63.0 °F 71% 29.78 in 10.0 mi SW 5.8 mph - N/A   Overcast
7:35 PM 70.0 °F - 66.0 °F 87% 29.79 in 10.0 mi WSW 5.8 mph - N/A Rain , Thunderstorm Light Thunderstorms and Rain
7:55 PM 70.0 °F - 64.9 °F 84% 29.78 in 10.0 mi South 4.6 mph - N/A Rain Rain
8:15 PM 68.5 °F - 68.0 °F 98% 29.78 in 10.0 mi ESE 5.8 mph - N/A   Mostly Cloudy
8:35 PM 68.9 °F - 68.4 °F 98% 29.81 in 10.0 mi South 4.6 mph - N/A Rain Light Rain
8:55 PM 68.7 °F - 68.5 °F 99% 29.79 in 7.0 mi Calm Calm - N/A Rain Light Rain
9:15 PM 68.4 °F - 68.4 °F 100% 29.81 in 5.0 mi Calm Calm - 0.02 in Rain , Thunderstorm Heavy Thunderstorms and Rain
9:35 PM 68.4 °F - 68.4 °F 100% 29.81 in 3.0 mi Calm Calm - 0.06 in Rain Rain
9:55 PM 68.4 °F - 68.4 °F 100% 29.79 in 2.5 mi NW 3.5 mph - 0.10 in Rain , Thunderstorm Rain
10:15 PM 68.0 °F - 68.0 °F 100% 29.79 in 5.0 mi Calm Calm - N/A Rain Light Rain
10:35 PM 68.0 °F - 68.0 °F 100% 29.79 in 5.0 mi Calm Calm - N/A   Overcast
10:55 PM 67.6 °F - 67.6 °F 100% 29.79 in 4.0 mi SE 3.5 mph - 0.01 in Rain Light Rain
11:15 PM 67.5 °F - 67.5 °F 100% 29.79 in 5.0 mi East 4.6 mph - 0.01 in Rain Rain
11:35 PM 67.6 °F - 67.6 °F 100% 29.77 in 3.0 mi Calm Calm - 0.01 in   Overcast
11:55 PM 67.5 °F - 67.5 °F 100% 29.76 in 4.0 mi Calm Calm - 0.01 in Rain Light Rain